Regional Weather Roundup
Issued by NWS

Home | Current Version | Previous Version | Text Only | Print | Product List | Glossary On
Versions: 1 2 3 4 5 6 7 8 9 10 11 12 13 14 15 16 17 18 19 20 21 22 23 24 25 26 27 28 29 30 31 32 33 34 35 36 37 38 39 40 41 42 43 44 45 46 47 48 49 50
000
ASUS44 KEWX 271210
RWRTX
SOUTH TEXAS REGIONAL WEATHER ROUNDUP
NATIONAL WEATHER SERVICE AUSTIN/SAN ANTONIO TX
600 AM CST SAT DEC 27 2014

NOTE: "FAIR" INDICATED FEW OR NO CLOUDS BELOW 12,000 FEET WITH NO
SIGNIFICANT WEATHER AND/OR OBSTRUCTIONS TO VISIBILITY.

* - THESE STATIONS ARE NOT NWS OR FAA STATIONS...AND ARE NOT SUBJECT
    TO NWS AND FAA QUALITY CONTROL.

TXZ171-172-183>190-271300-
TEXAS HILL COUNTRY AND EDWARDS PLATEAU

CITY           SKY/WX    TMP DP  RH WIND       PRES   REMARKS
JUNCTION       CLOUDY    48  37  65 N13       30.06R WCI  43
6HR MIN TEMP:  48; 6HR MAX TEMP:  57;

*LLANO         CLOUDY    50  41  71 N15G28    30.08R WCI  45
BURNET         CLOUDY    50  49  96 N14G23    30.05R WCI  45
6HR MIN TEMP:  51; 6HR MAX TEMP:  61; 6HR PCP: TRACE;

*HORSESHOE BAY FOG      N/A N/A N/A W3        30.01R VSB 1/4
*KERRVILLE     CLOUDY    59  57  95 CALM      29.99S FOG
6HR MIN TEMP:  52; 6HR MAX TEMP:  61;

*FREDERICKSBRG CLOUDY    57  57  98 N8        30.00S FOG
6HR MIN TEMP:  55; 6HR MAX TEMP:  60;

*ROCKSPRINGS   CLOUDY    48  39  71 NE10G17   30.02R WCI  44
*BOERNE STAGE  CLOUDY    61  59  94 CALM      29.99R
HONDO          FOG       62  60  93 NE5       29.97R VSB 1
6HR MIN TEMP:  57; 6HR MAX TEMP:  62;

*UVALDE        FOG       59  59 100 NE5       29.96R VSB 3/4
6HR MIN TEMP:  55; 6HR MAX TEMP:  59;

DEL RIO        PTCLDY    54  38  54 NW14      29.99R
6HR MIN TEMP:  54; 6HR MAX TEMP:  57;

LAUGHLIN AFB   NOT AVBL
CARRIZO SPRGS  CLOUDY    54  54 100 NW3       29.92S
$$

TXZ173-191>194-202-209-217>225-228-271300-
CENTRAL AND SOUTH CENTRAL TEXAS

CITY           SKY/WX    TMP DP  RH WIND       PRES   REMARKS
GEORGETOWN     CLOUDY    63  61  94 N7        29.99R
6HR MIN TEMP:  61; 6HR MAX TEMP:  64;

AUSTIN/BERGSTM LGT RAIN  62  62 100 NW3       29.98R FOG
6HR MIN TEMP:  58; 6HR MAX TEMP:  66; 6HR PCP: TRACE;

AUSTIN/MABRY   CLOUDY    65  63  93 CALM      30.00R
6HR MIN TEMP:  63; 6HR MAX TEMP:  66;

*AUSTIN/EXEC   CLOUDY    63  63 100 N6        30.00R FOG
*LAGO VISTA    CLOUDY    64  61  93 N3        30.00R FOG
6HR MIN TEMP:  63; 6HR MAX TEMP:  64;

SAN MARCOS     CLOUDY    63  61  94 N7        29.98R
6HR MIN TEMP:  61; 6HR MAX TEMP:  64;

NEW BRAUNFELS  CLOUDY    64  62  93 N3        29.96R FOG
6HR MIN TEMP:  64; 6HR MAX TEMP:  66; 6HR PCP: TRACE;

RANDOLPH AFB   PTCLDY    63  63 100 N5        29.97R FOG
6HR MIN TEMP:  62; 6HR MAX TEMP:  64; 6HR PCP: TRACE;

PT SAN ANTONIO CLOUDY    63  63 100 N6        29.94R FOG
                                      6HR PCP: TRACE;

SAN ANTONIO    LGT RAIN  64  63  96 N5        29.96R VSB 1/4
6HR MIN TEMP:  64; 6HR MAX TEMP:  64; 6HR PCP:  0.02;

STINSON FIELD  CLOUDY    64  63  96 N5        29.94R FOG
6HR MIN TEMP:  63; 6HR MAX TEMP:  64; 6HR PCP: TRACE;

*PLEASANTON    CLOUDY    64  63  95 CALM      29.94R
6HR MIN TEMP:  62; 6HR MAX TEMP:  65;

*LA GRANGE     MOCLDY    69  68  95 CALM      29.95R FOG
6HR MIN TEMP:  69; 6HR MAX TEMP:  71;

*GIDDINGS      CLOUDY    67  65  92 CALM      30.02R FOG
6HR MIN TEMP:  65; 6HR MAX TEMP:  67;

*GONZALES      CLOUDY    70  67  88 S10       29.95R
6HR MIN TEMP:  69; 6HR MAX TEMP:  70;

$$

TXZ163>164-176>182-195>201-210>213-226-227-235-271300-
SOUTHEAST TEXAS

CITY           SKY/WX    TMP DP  RH WIND       PRES   REMARKS
COLLEGE STN    CLOUDY    66  65  96 SE3       29.98R
6HR MIN TEMP:  65; 6HR MAX TEMP:  67;

*BRYAN         CLOUDY    65  65  99 CALM      29.99R FOG
6HR MIN TEMP:  64; 6HR MAX TEMP:  66;

*CALDWELL      CLOUDY    64  64 100 CALM      30.02R FOG
*CROCKETT      CLOUDY    66  66 100 SE5       30.02R
*BRENHAM       LGT RAIN  70  69  96 SE6       29.97R
6HR MIN TEMP:  68; 6HR MAX TEMP:  70; 6HR PCP:  0.01;

HUNTSVILLE     CLOUDY    68  66  93 S7        29.98R
6HR MIN TEMP:  65; 6HR MAX TEMP:  68; 6HR PCP:  0.04;

CONROE         CLOUDY    67  66  97 S7        29.99S FOG
6HR MIN TEMP:  65; 6HR MAX TEMP:  67; 6HR PCP:  0.06;

HOUSTON BUSH   CLOUDY    70  68  93 SE8       29.98S
6HR MIN TEMP:  67; 6HR MAX TEMP:  70;

HOUSTON HOBBY  CLOUDY    69  68  96 S6        29.98R
6HR MIN TEMP:  69; 6HR MAX TEMP:  70;

*HOUSTON SW AP CLOUDY    59  59 100 SE6       29.98S FOG
6HR MIN TEMP:  57; 6HR MAX TEMP:  60;

PEARLAND       CLOUDY    70  69  97 S9        29.99S
6HR MIN TEMP:  69; 6HR MAX TEMP:  71;

HOUSTON HOOKS  CLOUDY    69  67  93 SE3       29.98S
6HR MIN TEMP:  69; 6HR MAX TEMP:  71; 6HR PCP: TRACE;

ELLINGTON FLD  CLOUDY    70  68  94 SE3       29.99S
SUGAR LAND     CLOUDY    70  67  90 SE6       29.97R
6HR MIN TEMP:  67; 6HR MAX TEMP:  71;

*HOUSTON EXEC  CLOUDY    68  66  94 SE6       29.98S FOG
*CLEVELAND MUN CLOUDY    68  68  99 S5        30.00S FOG
6HR MIN TEMP:  64; 6HR MAX TEMP:  68;

*WHARTON       CLOUDY    69  68  96 SE10      29.97R
6HR MIN TEMP:  67; 6HR MAX TEMP:  69;

*COLUMBUS      CLOUDY    69  68  97 S9        29.95R
6HR MIN TEMP:  67; 6HR MAX TEMP:  69;

$$

TXZ214>216-236>238-271300-
THE UPPER TEXAS COAST

CITY           SKY/WX    TMP DP  RH WIND       PRES   REMARKS
*ORANGE        FOG       65  65  99 E5        30.04R VSB 3/4
6HR MIN TEMP:  63; 6HR MAX TEMP:  65;

PORT ARTHUR    FOG       66  65  96 E8        30.01S VSB 1/2
6HR MIN TEMP:  63; 6HR MAX TEMP:  66; 6HR PCP: TRACE;

GALVESTON      CLOUDY    66  66 100 SE10      29.99S
6HR MIN TEMP:  65; 6HR MAX TEMP:  67;

ANGLETON       MOCLDY    69  69 100 S13       29.97S
6HR MIN TEMP:  68; 6HR MAX TEMP:  70;

*BAY CITY        N/A     71  71  99 SE10      29.96R
PALACIOS       CLOUDY    68  67  96 SE10      29.95R FOG
6HR MIN TEMP:  67; 6HR MAX TEMP:  68;

$$

TXZ229>234-239>247-271300-
TEXAS COASTAL BEND AND RIO GRANDE PLAINS

CITY           SKY/WX    TMP DP  RH WIND       PRES   REMARKS
VICTORIA       CLOUDY    69  68  96 SE8       29.94R FOG
6HR MIN TEMP:  67; 6HR MAX TEMP:  70;

*BEEVILLE      CLOUDY    68  68  99 S13       29.91R
6HR MIN TEMP:  66; 6HR MAX TEMP:  68;

ROCKPORT       CLEAR     69  67  93 SE15      29.91S FOG
6HR MIN TEMP:  68; 6HR MAX TEMP:  70;

*PORT ARANSAS  MOCLDY    67  66  97 SE12      29.91S FOG
6HR MIN TEMP:  65; 6HR MAX TEMP:  67;

*PORT LAVACA   CLOUDY    68  67  98 SE7       29.94R FOG
6HR MIN TEMP:  64; 6HR MAX TEMP:  68;

*INGLESIDE     PTCLDY    66  64  93 S16G23    29.91R FOG
CORPUS CHRISTI PTCLDY    70  67  90 S16       29.90S
6HR MIN TEMP:  66; 6HR MAX TEMP:  70;

CORPUS NAS     PTCLDY    69  69 100 SE16      29.91S
6HR MIN TEMP:  68; 6HR MAX TEMP:  70;

*ROBSTOWN      NOT AVBL
ALICE          CLOUDY    69  66  90 SE8       29.88S
6HR MIN TEMP:  63; 6HR MAX TEMP:  69;

KINGSVILLE NAS CLOUDY    70  69  97 SE13      29.90R
6HR MIN TEMP:  66; 6HR MAX TEMP:  70;

COTULLA        NOT AVBL
*FAITH RANCH   CLOUDY    52  48  87 NW9       29.94
LAREDO         NOT AVBL
$$

TXZ248>255-271300-
DEEP SOUTH TEXAS

CITY           SKY/WX    TMP DP  RH WIND       PRES   REMARKS
BROWNSVILLE    MOCLDY    70  68  93 SE13      29.92R
6HR MIN TEMP:  68; 6HR MAX TEMP:  71;

PORT ISABEL    MOCLDY    70  68  93 SE13      29.91R FOG
6HR MIN TEMP:  68; 6HR MAX TEMP:  70;

*SOUTH PADRE   CLOUDY    68  68 100 E9        29.93R
HARLINGEN      MOCLDY    70  68  94 SE17G24   29.90R
6HR MIN TEMP:  66; 6HR MAX TEMP:  70;

*HEBBRONVILLE  CLOUDY    65  64  96 SE13G20   29.90R
MCALLEN        CLOUDY    70  66  87 SE10      29.90R
6HR MIN TEMP:  65; 6HR MAX TEMP:  70;



USA.gov is the U.S. government's official web portal to all federal, state and local government web resources and services.